When you browse on this site, cookies collect data to enhance your experience and personalize the content and advertising you see.
Visit our Privacy Policy to learn more. By continuing to use the site, you agree to this use of cookies and data.
  • In Hungary
  • List of Countries
  • For 7 days
  • Water Temperature
  • Weather Map
  • News
  • Weather Widgets
  • user-avatar
    Login

    Hourly Weather Uhersky Brod

    Today, 29 February, Saturday

    Time Temperature Precipitation Wind Pressure Humidity
    00:00 0°C° 0 mm 1 mps 742 mmHg 87%
    01:00 0°C° 0 mm 1 mps 742 mmHg 85%
    02:00 +1°C° 0 mm 1 mps 741 mmHg 84%
    03:00 +1°C° 0 mm 1 mps 741 mmHg 84%
    04:00 -1°C° 0 mm 2 mps 740 mmHg 83%
    05:00 -1°C° 0 mm 3 mps 740 mmHg 80%
    06:00 -1°C° 0 mm 4 mps 740 mmHg 77%
    07:00 -1°C° 0 mm 5 mps 739 mmHg 74%
    08:00 -1°C° 0 mm 6 mps 738 mmHg 71%
    09:00 -1°C° 0 mm 6 mps 738 mmHg 67%
    10:00 0°C° 0 mm 7 mps 737 mmHg 63%
    11:00 +2°C° 0 mm 7 mps 737 mmHg 61%
    12:00 +3°C° 0 mm 7 mps 736 mmHg 59%
    13:00 +4°C° 0 mm 8 mps 736 mmHg 58%
    14:00 +4°C° 0 mm 7 mps 735 mmHg 60%
    15:00 +4°C° 0 mm 7 mps 734 mmHg 62%
    16:00 +4°C° 0 mm 7 mps 734 mmHg 64%
    17:00 +3°C° 0 mm 7 mps 733 mmHg 65%
    18:00 +3°C° 0 mm 7 mps 733 mmHg 66%
    19:00 +3°C° 0 mm 7 mps 733 mmHg 68%
    20:00 +3°C° 0 mm 7 mps 733 mmHg 68%
    21:00 +2°C° 0 mm 6 mps 733 mmHg 69%
    22:00 +2°C° 0 mm 6 mps 733 mmHg 70%
    23:00 +2°C° 0 mm 5 mps 733 mmHg 72%

    Tomorrow, 1 March, Sunday

    Time Temperature Precipitation Wind Pressure Humidity
    00:00 +3°C° 0 mm 4 mps 733 mmHg 74%
    01:00 +2°C° 0 mm 3 mps 733 mmHg 76%
    02:00 +2°C° 0 mm 3 mps 733 mmHg 77%
    03:00 +3°C° 0 mm 2 mps 733 mmHg 77%
    04:00 +3°C° 0 mm 2 mps 733 mmHg 78%
    05:00 +3°C° 0.1 mm 2 mps 733 mmHg 80%
    06:00 +3°C° 0.1 mm 2 mps 733 mmHg 81%
    07:00 +4°C° 0.1 mm 1 mps 734 mmHg 82%
    08:00 +4°C° 0.5 mm 1 mps 734 mmHg 84%
    09:00 +4°C° 0.5 mm 1 mps 734 mmHg 86%
    10:00 +4°C° 0.5 mm 1 mps 734 mmHg 88%
    11:00 +4°C° 0.6 mm 1 mps 734 mmHg 90%
    12:00 +4°C° 0.6 mm 1 mps 734 mmHg 92%
    13:00 +3°C° 0.6 mm 2 mps 734 mmHg 94%
    14:00 +4°C° 0.5 mm 1 mps 734 mmHg 94%
    15:00 +5°C° 0.5 mm 1 mps 733 mmHg 94%
    16:00 +5°C° 0.5 mm 1 mps 733 mmHg 95%
    17:00 +4°C° 0.3 mm 2 mps 733 mmHg 95%
    18:00 +4°C° 0.3 mm 2 mps 733 mmHg 94%
    19:00 +4°C° 0.3 mm 2 mps 733 mmHg 94%
    20:00 +4°C° 0.1 mm 2 mps 732 mmHg 95%
    21:00 +4°C° 0.1 mm 2 mps 732 mmHg 95%
    22:00 +4°C° 0.1 mm 2 mps 731 mmHg 95%
    23:00 +4°C° 0.5 mm 2 mps 730 mmHg 95%

    Day after tomorrow, 2 March, Monday

    Time Temperature Precipitation Wind Pressure Humidity
    00:00 +4°C° 0.5 mm 2 mps 729 mmHg 96%
    01:00 +5°C° 0.5 mm 2 mps 728 mmHg 96%
    02:00 +5°C° 1.5 mm 2 mps 728 mmHg 97%
    03:00 +5°C° 1.5 mm 2 mps 727 mmHg 97%
    04:00 +6°C° 1.5 mm 1 mps 727 mmHg 98%
    05:00 +5°C° 3.5 mm 2 mps 727 mmHg 97%
    06:00 +5°C° 3.5 mm 2 mps 727 mmHg 97%
    07:00 +4°C° 3.5 mm 3 mps 727 mmHg 96%
    08:00 +4°C° 0.1 mm 3 mps 728 mmHg 90%
    09:00 +5°C° 0.1 mm 3 mps 728 mmHg 84%
    10:00 +7°C° 0.1 mm 3 mps 728 mmHg 78%
    11:00 +8°C° 0 mm 3 mps 729 mmHg 73%
    12:00 +8°C° 0 mm 3 mps 729 mmHg 68%
    13:00 +9°C° 0 mm 3 mps 729 mmHg 63%
    14:00 +9°C° 0 mm 3 mps 728 mmHg 63%
    15:00 +9°C° 0 mm 3 mps 727 mmHg 62%
    16:00 +8°C° 0 mm 4 mps 727 mmHg 62%
    17:00 +8°C° 0 mm 4 mps 727 mmHg 66%
    18:00 +7°C° 0 mm 5 mps 726 mmHg 70%
    19:00 +6°C° 0 mm 5 mps 726 mmHg 74%
    20:00 +7°C° 0 mm 5 mps 726 mmHg 77%
    21:00 +7°C° 0 mm 5 mps 726 mmHg 79%
    22:00 +7°C° 0 mm 5 mps 726 mmHg 82%
    23:00 +7°C° 0.6 mm 5 mps 726 mmHg 84%

    3 March, Tuesday

    Time Temperature Precipitation Wind Pressure Humidity
    00:00 +7°C° 0.6 mm 5 mps 726 mmHg 87%
    01:00 +7°C° 0.6 mm 5 mps 725 mmHg 90%
    02:00 +7°C° 1.8 mm 5 mps 725 mmHg 90%
    03:00 +7°C° 1.8 mm 6 mps 724 mmHg 91%
    04:00 +7°C° 1.8 mm 6 mps 724 mmHg 92%
    05:00 +6°C° 1.5 mm 5 mps 724 mmHg 93%
    06:00 +6°C° 1.5 mm 4 mps 725 mmHg 93%
    07:00 +7°C° 1.5 mm 3 mps 725 mmHg 94%
    08:00 +5°C° 0.3 mm 4 mps 726 mmHg 93%
    09:00 +5°C° 0.3 mm 4 mps 726 mmHg 92%
    10:00 +4°C° 0.3 mm 4 mps 726 mmHg 91%
    11:00 +4°C° 0.7 mm 4 mps 727 mmHg 92%
    12:00 +3°C° 0.7 mm 4 mps 727 mmHg 94%
    13:00 +1°C° 0.7 mm 4 mps 727 mmHg 95%
    14:00 +1°C° 1.5 mm 4 mps 728 mmHg 96%
    15:00 +1°C° 1.5 mm 4 mps 728 mmHg 96%
    16:00 0°C° 1.5 mm 4 mps 728 mmHg 96%
    17:00 0°C° 0.5 mm 4 mps 729 mmHg 96%
    18:00 +1°C° 0.5 mm 4 mps 729 mmHg 95%
    19:00 +1°C° 0.5 mm 5 mps 730 mmHg 95%
    20:00 +1°C° 0 mm 4 mps 730 mmHg 93%
    21:00 +1°C° 0 mm 3 mps 730 mmHg 92%
    22:00 +1°C° 0 mm 3 mps 731 mmHg 90%
    23:00 +2°C° 0 mm 2 mps 731 mmHg 90%

    4 March, Wednesday

    Time Temperature Precipitation Wind Pressure Humidity
    00:00 +2°C° 0 mm 2 mps 731 mmHg 90%
    01:00 +1°C° 0 mm 2 mps 731 mmHg 90%
    02:00 +2°C° 0 mm 1 mps 731 mmHg 90%
    03:00 +2°C° 0 mm 1 mps 731 mmHg 90%
    04:00 +2°C° 0 mm 1 mps 732 mmHg 90%
    05:00 +1°C° 0 mm 1 mps 732 mmHg 89%
    06:00 +1°C° 0 mm 1 mps 732 mmHg 89%
    07:00 -1°C° 0 mm 2 mps 733 mmHg 88%
    08:00 +2°C° 0 mm 2 mps 733 mmHg 84%
    09:00 +2°C° 0 mm 3 mps 733 mmHg 79%
    10:00 +3°C° 0 mm 4 mps 734 mmHg 75%
    11:00 +4°C° 0.1 mm 4 mps 734 mmHg 70%
    12:00 +4°C° 0.1 mm 4 mps 734 mmHg 65%
    13:00 +5°C° 0.1 mm 5 mps 734 mmHg 60%
    14:00 +5°C° 0.1 mm 4 mps 734 mmHg 62%
    15:00 +5°C° 0.1 mm 4 mps 734 mmHg 64%
    16:00 +5°C° 0.1 mm 3 mps 734 mmHg 66%
    17:00 +4°C° 0.1 mm 3 mps 734 mmHg 72%
    18:00 +4°C° 0.1 mm 2 mps 735 mmHg 78%
    19:00 +3°C° 0.1 mm 2 mps 735 mmHg 84%
    20:00 +2°C° 0 mm 2 mps 736 mmHg 87%
    21:00 +2°C° 0 mm 2 mps 736 mmHg 90%
    22:00 +2°C° 0 mm 2 mps 736 mmHg 93%
    23:00 +2°C° 0 mm 2 mps 736 mmHg 93%

    5 March, Thursday

    Time Temperature Precipitation Wind Pressure Humidity
    00:00 +1°C° 0 mm 2 mps 736 mmHg 94%
    01:00 +2°C° 0 mm 1 mps 736 mmHg 94%
    02:00 +2°C° 0 mm 1 mps 736 mmHg 94%
    03:00 +2°C° 0 mm 1 mps 736 mmHg 93%
    04:00 +2°C° 0 mm 1 mps 736 mmHg 93%
    05:00 +2°C° 0 mm 1 mps 736 mmHg 92%
    06:00 +2°C° 0 mm 1 mps 736 mmHg 92%
    07:00 +2°C° 0 mm 1 mps 736 mmHg 92%
    08:00 +3°C° 0 mm 1 mps 735 mmHg 85%
    09:00 +3°C° 0 mm 2 mps 735 mmHg 79%
    10:00 +4°C° 0 mm 2 mps 735 mmHg 72%
    11:00 +4°C° 0 mm 3 mps 734 mmHg 68%
    12:00 +5°C° 0 mm 4 mps 734 mmHg 64%
    13:00 +6°C° 0 mm 4 mps 733 mmHg 61%
    14:00 +6°C° 0 mm 5 mps 732 mmHg 63%
    15:00 +6°C° 0 mm 5 mps 731 mmHg 64%
    16:00 +4°C° 0 mm 6 mps 731 mmHg 66%
    17:00 +4°C° 0 mm 6 mps 730 mmHg 68%
    18:00 +4°C° 0 mm 6 mps 730 mmHg 69%
    19:00 +3°C° 0 mm 6 mps 729 mmHg 71%
    20:00 +3°C° 0 mm 6 mps 728 mmHg 71%
    21:00 +3°C° 0 mm 7 mps 728 mmHg 70%
    22:00 +3°C° 0 mm 7 mps 728 mmHg 69%
    23:00 +3°C° 0 mm 7 mps 727 mmHg 74%
    Show more